Regional Weather Roundup
Issued by NWS Grand Forks, ND

Home | Current Version | Previous Version | Text Only | Print | Product List | Glossary Off
Versions: 1 2 3 4 5 6 7 8 9 10 11 12 13 14 15 16 17 18 19 20 21 22 23 24 25 26 27 28 29 30 31 32 33 34 35 36 37 38 39 40 41 42 43 44 45 46 47 48 49 50

000
ASUS43 KFGF 270910
RWRFGF
PRAIRIE TO PINES  WEATHER ROUNDUP
NATIONAL WEATHER SERVICE EASTERN NORTH DAKOTA/GRAND FORKS ND
300 AM CST TUE JAN 27 2015

 **SATELLITE DATA USED TO AUGMENT SKY COVER AT AUTOMATED STATIONS**
 *****  WEATHER ACROSS EASTERN NORTH DAKOTA  *****

CITY           SKY/WX    TMP DP  RH WIND       PRES   REMARKS
GRAND FORKS    FOG       26  24  92 S8        30.05R VSB 1/2 WCI  18
GRAND FRKS AFB FOG       23  21  94 S7        30.04S VSB 3/4 WCI  14
DEVILS LAKE    CLEAR     21  18  86 SE5       29.96S WCI  15
FARGO          CLOUDY    28  26  92 CALM      30.06R FOG
WAHPETON ARPT  CLOUDY    28  27  93 E5        30.06S WCI  23
$$

 ***** WEATHER ACROSS CENTRAL AND WESTERN NORTH DAKOTA  *****

CITY           SKY/WX    TMP DP  RH WIND       PRES   REMARKS
BISMARCK       CLEAR     30  28  92 E6        29.95R WCI  24
MINOT          PTCLDY    30  27  88 SE5       29.88F
JAMESTOWN      CLEAR     26  25  96 CALM      29.98S
MINOT AFB      PTCLDY    28  28 100 S6        29.88F WCI  21
GARRISON         N/A     30  29  96 SE5       29.89F
WILLISTON      PTCLDY    28  26  92 N5        29.86S WCI  23
DICKINSON      CLEAR     34  29  82 S6        29.86S
HETTINGER      CLEAR     32  27  81 CALM      29.90F
$$

 *****  OTHER AIRPORT OBSERVATIONS IN OUR AREA  *****

CITY           SKY/WX    TMP DP  RH WIND       PRES   REMARKS
WALHALLA         N/A     19  19 100 S8        30.00F WCI   9
GRAFTON AIRPOR NOT AVBL
VALLEY CITY AR FOG       23  23 100 S3        30.01R VSB 1/2
CANDO          FAIR      23  21  93 SE7       29.96S WCI  15
CAVALIER APRT  FOG       19  19 100 S6        30.02S VSB 3/4 WCI  11
GWINNER        SUNNY     28  28 100 CALM      30.03S
SHEYENNE NWR     N/A     20  19  96 E3        29.95S
ROLLA          PTSUNNY   28  28 100 SW8       29.94S WCI  20
 ***** THE ABOVE OBSERVATIONS ARE NON NWS ARE NOT QUALITY
       CONTROLLED AND MAY MIS-REPORT RAIN FOR SNOW...
$$

  *****  WEATHER ACROSS NORTHERN MINNESOTA  *****

CITY           SKY/WX    TMP DP  RH WIND       PRES   REMARKS
FLAG ISLAND    CLOUDY    21  19  93 S5        30.03S WCI  15
WARROAD        FOG       21  18  86 CALM      30.04S VSB 1/2
ROSEAU         HAZE      23  18  80 S3        30.04R VSB 1/4
HALLOCK        FOG       25  23  93 S6        30.03F VSB 1/2 WCI  18
THF RVR FALLS  CLOUDY    25  25 100 MISG      30.05R VSB 3/4
BAUDETTE       CLOUDY    24  20  84 CALM      30.03R
WASKISH        CLOUDY    27  25  93 CALM      30.04S
CROOKSTON      FOG       27  25  93 CALM      30.06S VSB 3/4
STEPHEN NDAWN    N/A     23  23 100 S8          N/A  WCI  14
GREENBUSH NDAW   N/A     25  25 100 SW6         N/A  WCI  18
$$
  *****  WEATHER ACROSS CENTRAL AND WEST MINNESOTA  *****

CITY           SKY/WX    TMP DP  RH WIND       PRES   REMARKS
FOSSTON        CLOUDY    25  23  93 CALM      30.04S
BEMIDJI        CLOUDY    24  24  99 CALM      30.03R
PARK RAPIDS    CLOUDY    27  25  92 W3        30.03R
ELBOW LAKE     CLOUDY    27  26  99 CALM      30.05R
WADENA         CLOUDY    27  25  93 CALM      30.04S
DETROIT LAKES  FOG       27  27 100 CALM      30.04S VSB 3/4
MOORHEAD       CLOUDY    27  27 100 CALM      30.07R FOG
FERGUS FALLS   CLOUDY    27  27 100 CALM      30.09R
MORRIS MN      CLOUDY    28  28 100 CALM      30.05R FOG
STAPLES        CLOUDY    28  25  86 CALM      30.04S
$$
  *****  WEATHER ELSEWHERE ACROSS MINNESOTA  *****

CITY           SKY/WX    TMP DP  RH WIND       PRES   REMARKS
DULUTH         CLOUDY    26  21  81 N3        30.02R
INTRNTL FALLS  CLOUDY    24  20  84 W3        30.04R
ELY            CLOUDY    21  19  93 CALM      30.03R
CLOQUET        CLOUDY    27  21  80 N3        30.03S
WHEATON        CLEAR     25  23  93 CALM      30.07F
BRAINERD       CLOUDY    30  25  81 CALM      30.04R
HIBBING        CLOUDY    27  21  78 NW3       30.03R
ALEXANDRIA     CLOUDY    28  25  88 E6        30.04R WCI  22
SAINT CLOUD    CLOUDY    32  26  78 N7        30.05R
MINNEAPOLIS    CLOUDY    34  25  69 N10       30.06R
$$

  *****  WEATHER ACROSS SOUTH DAKOTA  *****

CITY           SKY/WX    TMP DP  RH WIND       PRES   REMARKS
SIOUX FALLS    CLEAR     28  26  92 CALM      30.05R
BROOKINGS      NOT AVBL
WATERTOWN      CLEAR     26  24  92 S3        30.02S
HURON          CLEAR     27  26  96 S5        30.03R WCI  22
SISSETON         N/A     27  27 100 S5        30.04R WCI  22
ABERDEEN       PTCLDY    28  26  92 S3        30.02R
MITCHELL       CLEAR     29  28  96 SW6       30.05S WCI  23
PIERRE         CLEAR     32  28  85 E7        29.97S
MOBRIDGE       CLEAR     32  29  88 SE9       29.93F WCI  24
RAPID CITY     CLEAR     40  26  57 NW6       29.96S
$$

  *****  SOME WEATHER IN NEARBY STATES *****

CITY           SKY/WX    TMP DP  RH WIND       PRES   REMARKS
GLASGOW MT     PTCLDY    34  30  85 E9        29.83S
GREAT FALLS MT PTCLDY    52  27  38 SW18      29.91F
CHEYENNE WY    CLEAR     43  20  39 NW8       30.19F
SCOTTSBLUFF NE PTCLDY    33  28  81 N7        30.09S
OMAHA NE       CLEAR     31  29  92 N5        30.08R
DES MOINES IA  PTCLDY    35  30  82 NW8       30.06R
DAVENPORT IA   CLOUDY    34  29  82 N12       29.98R
CHICAGO IL     CLOUDY    27  24  89 N5        29.95R WCI  22
EAU CLAIRE WI  CLOUDY    28  23  81 CALM      30.04R
LA CROSSE WI   CLOUDY    32  23  69 N8        30.03R WCI  25
$$

  *****  SOME NATIONAL WEATHER *****

CITY           SKY/WX    TMP DP  RH WIND       PRES   REMARKS
LA GUARDIA NY  SNOW      21  18  88 N21G30    29.66S VSB 1/2 WCI   5
RALEIGH NC     FLURRIES  34  29  82 VRB3      29.73R
ATLANTA GA     MOCLDY    32  27  81 W9        29.87F WCI  24
NEW ORLEANS LA CLEAR     47  40  76 W7        30.08F
OKLAHOMA CITY  CLEAR     49  33  54 NW7       30.10R
ALBUQUERQUE NM PTCLDY    38  26  62 NE5       30.34S
SALT LAKE CITY PTCLDY    33  31  92 W5        30.18S
LOS ANGELES CA PTCLDY    56  52  86 CALM      30.12R
BOISE ID       FOG       31  30  96 CALM      30.12F VSB 1/4
SEATTLE WA     CLOUDY    52  46  82 SE5       29.99S
$$

*** WEATHER ACROSS MANITOBA...SASKATCHEWAN AND ONTARIO ***
                ***ONTARIO***

CITY           SKY/WX    TMP DP  RH WIND       PRES   REMARKS
GERALDTON      FLURRIES  12  10  92 SE6       30.05S WCI   3
THUNDER BAY    FLURRIES  21  19  93 S3        30.08R
SIOUX LOOKOUT  FLURRIES  19  18  93 W7        30.01R WCI  10
TORONTO        FLURRIES  10   3  72 N13       30.00S WCI  -5
BIG TROUT LK   CLOUDY    12  10  92 SW7       29.90S WCI   2
PICKLE LAKE    NOT AVBL
DRYDEN         CLOUDY    19  19 100 W8        30.02R WCI   9
KENORA         LGT SNOW  19  19 100 SW5       30.01R VSB 3/4 WCI  13
$$
                *** MANITOBA***

CITY           SKY/WX    TMP DP  RH WIND       PRES   REMARKS
BRANDON        CLOUDY    19  18  93 CALM      29.92F FOG
DAUPHIN        CLOUDY    30  28  93 W10       29.87R WCI  21
ISLAND LAKE    FLURRIES  18  16  93 S8        29.88S WCI   7
PILOT MOUND    NOT AVBL
THE PAS        CLEAR     14  14 100 S2        29.78S
THOMPSON       LGT SNOW  19  18  93 SW8       29.74S FOG     WCI   9
WINNIPEG       CLOUDY    21  19  93 S15       30.01S FOG     WCI   8
LYNN LAKE      CLOUDY    27  23  86 NW20      29.72R WCI  13
CHURCHILL      LGT SNOW  12  10  92 W13       29.61R WCI  -3
$$
                ***SASKATCHEWAN***

CITY           SKY/WX    TMP DP  RH WIND       PRES   REMARKS
ESTEVAN        CLEAR     28  27  93 S8        29.83F WCI  20
KINDERSLEY     MOCLDY    28  25  86 E8        29.75R WCI  20
LLOYDMINSTER   CLOUDY    36  32  87 N6        29.77S
PRINCE ALBERT  CLOUDY    27  25  93 SW3       29.81R
REGINA         PTCLDY    28  27  93 SE7       29.81R WCI  21
YORKTON        CLOUDY    30  27  86 VRB2      29.83F
N. BATTLEFORD  MOCLDY    32  30  93 E3        29.80F
LA RONGE       CLEAR     19  19 100 W3        29.79S
SASKATOON      MOCLDY    32  30  93 VRB2      29.80F
SWIFT CURRENT  CLEAR     41  32  70 SW15      29.73S
$$
NOTE: THESE ARE AUTOMATED STATIONS WITH LIMITED QUALITY CONTROL
      "FAIR" INDICATES FEW OR NO CLOUDS BELOW 12,000 FEET WITH NO
      SIGNIFICANT WEATHER AND/OR OBSTRUCTIONS TO VISIBILITY.
      SKY/WX - SKY CONDITION AND SIGNIFICANT WEATHER.
      TMP - AIR TEMPERATURE.    DP   - DEWPOINT TEMPERATURE.
      RH  - RELATIVE HUMIDITY.  PRES - PRESSURE.
      HX  - HEAT INDEX.         WCI  - WIND CHILL INDEX.
$


USA.gov is the U.S. government's official web portal to all federal, state and local government web resources and services.